Flag for Canada Weather past 2 weeks in Abbotsford, British Columbia, Canada

Now
54 °F

Broken clouds.


Feels Like: 49 °F
Forecast: 47 / 53 °F
Wind: 14 mph from South

Location: Abbotsford

Current Time: Oct 23, 2014 at 1:49:49 PM

Latest Report: Oct 23, 2014 at 1:00 PM


Visibility: 10 mi

Pressure: 29.76 "Hg

Humidity: 94%

Dew point: 52 °F

Location of AbbotsfordLocation

Historic Weather in Abbotsford — Graph

°F

Abbotsford temperature yesterday

Maximum temperature yesterday: 63 °F (at 2:00 AM)
Minimum temperature yesterday: 52 °F (at 6:00 PM)
Average temperature yesterday: 56 °F

Past Weeks' High & Low Weather Summary

 TemperatureHumidityPressure
High72 °F (Oct 19, 2:00 PM)100% (Oct 8, 9:00 PM)30.24 "Hg (Oct 8, 9:00 PM)
Low46 °F (Oct 10, 6:00 AM)52% (Oct 22, 2:00 AM)29.50 "Hg (Oct 22, 8:00 PM)
Average56 °F90%29.85 "Hg
* Reported Oct 8 12:00 Noon — Oct 23 12:00 Noon, Abbotsford, Weather by CustomWeather, © 2014

Note: Actual official high and low records may vary slightly from our data, if they occured in-between our weather recording intervals... More about our weather records

Advertising

Abbotsford weather history for previous 24 hours

 ConditionsComfort  
Time TempWeatherWind HumidityBarometerVisibility
12:00 PM
Oct 23
52 °FMostly cloudy.16 mph88%29.75 "Hg20 mi
11:00 AM52 °FLight rain. Fog.7 mph88%29.73 "Hg15 mi
10:00 AM52 °FLight rain. More clouds than sun.17 mph88%29.73 "Hg7 mi
9:00 AM52 °FSprinkles. Mostly cloudy.5 mph94%29.71 "Hg10 mi
8:00 AM52 °FMostly cloudy.5 mph94%29.70 "Hg12 mi
7:00 AM52 °FSprinkles. Mostly cloudy.7 mph94%29.69 "Hg8 mi
6:00 AM50 °FScattered showers. Mostly cloudy.2 mph100%29.68 "Hg10 mi
5:00 AM50 °FMostly cloudy.No wind94%29.70 "Hg15 mi
4:00 AM50 °FMostly cloudy.2 mph100%29.70 "Hg15 mi
3:00 AM50 °FOvercast.6 mph94%29.70 "Hg15 mi
2:00 AM50 °FPassing clouds.10 mph94%29.67 "Hg15 mi
1:00 AM54 °FSprinkles. Mostly cloudy.12 mph88%29.65 "Hg10 mi
12:00 AM55 °FScattered showers. Mostly cloudy.13 mph88%29.62 "Hg10 mi
11:00 PM
Oct 22
55 °FPassing clouds.20 mph88%29.58 "Hg15 mi
10:00 PM55 °FSprinkles. Mostly cloudy.20 mph88%29.54 "Hg15 mi
9:00 PM52 °FLight rain. Overcast.6 mph94%29.51 "Hg8 mi
8:00 PM52 °FLight rain. Mostly cloudy.15 mph94%29.50 "Hg15 mi
7:00 PM52 °FLight rain. Mostly cloudy.10 mph94%29.54 "Hg10 mi
6:00 PM52 °FRain. Overcast.10 mph94%29.57 "Hg7 mi
5:00 PM54 °FLight rain. Fog.6 mph88%29.59 "Hg3 mi
4:00 PM55 °FLow clouds.6 mph94%29.62 "Hg20 mi
3:00 PM55 °FBroken clouds.7 mph94%29.65 "Hg20 mi
2:00 PM55 °FMostly cloudy.5 mph94%29.65 "Hg15 mi
1:00 PM55 °FSprinkles. Cloudy.5 mph94%29.69 "Hg15 mi
Weather by CustomWeather, © 2014

See weather overviewHow to use our weather pages